Location: Aubespeyre
(44.6859°N, 2.4655°E)
Time: 23:00:31
(UTC+00:00)

Daily predictions for brighter satellites

Satellite Brightness Start Highest point End
(mag) Time Altitude Azimuth Time Altitude Azimuth Time Altitude Azimuth
Cosmos 2180 Rocket 4.5 16:33:20 10° S 16:39:25 70° E 16:45:34 10° NNE
Cosmos 1697 Rocket 2.9 16:34:41 10° S 16:40:09 58° ESE 16:45:40 10° NNE
CENTAUR R/B 4.0 16:35:04 10° W 16:40:10 27° NNW 16:46:16 10° NNE
CZ-2D R/B 4.1 16:41:04 10° ESE 16:43:24 19° ENE 16:45:45 10° NNE
NOSS 2-3 (C) 4.0 16:41:07 10° S 16:44:15 31° ESE 16:47:26 10° NE
Cosmos 1626 Rocket 4.2 16:40:05 10° NNW 16:44:20 61° W 16:48:33 10° S
Cosmos 2266 Rocket 3.9 16:44:12 10° N 16:50:17 65° E 16:56:16 10° SSE
Cosmos 1606 Rocket 3.9 16:47:12 10° SSE 16:51:24 46° E 16:55:39 10° NNE
Cosmos 1503 Rocket 4.1 16:48:28 10° SSW 16:53:43 81° WNW 16:58:56 10° NNE
Lacrosse 5 rocket 3.3 16:54:35 10° NNW 16:56:16 13° N 16:57:56 10° NNE
EXPRESS MD2 3.7 16:54:27 10° SSW 16:56:30 26° SE 16:59:01 11° E
Cosmos 1484 Rocket 3.1 16:55:05 10° S 16:58:33 61° W 17:02:01 10° NNW
Thor Agena Rocket 3.5 16:54:31 10° SSE 16:59:43 76° ENE 17:04:52 10° NNW
UNK 3.7 16:55:46 10° NNE 17:00:19 62° ESE 17:04:49 10° S
CZ-4C R/B 3.2 16:53:17 10° NW 17:00:29 85° SW 17:09:19 10° SSE
Cosmos 1743 3.4 16:59:27 10° NNW 17:02:35 47° W 17:05:42 10° S
NOSS 2-3 (D) 3.2 16:59:51 10° SSW 17:03:31 65° SE 17:07:03 11° NE
NOSS 2-3 (E) 3.1 17:00:31 10° SSW 17:04:10 73° SE 17:07:43 11° NE
Cosmos 1354 Rocket 4.0 16:59:27 10° SSW 17:04:43 88° ESE 17:10:00 10° NNE
IGS 5A 3.8 17:02:04 10° S 17:05:59 67° WSW 17:09:58 10° NNW
Cosmos-2242 4.2 17:05:06 10° SE 17:08:22 22° E 17:11:23 11° NE
USA 238 DEB 3.7 17:02:50 10° SSW 17:08:40 54° ESE 17:14:49 11° NE
USA 238 3.7 17:02:57 10° SSW 17:08:48 53° ESE 17:14:55 11° NE
MOS 1 Rocket 3.7 17:04:38 10° SE 17:09:22 46° ENE 17:14:21 10° N
Cosmos 2151 3.5 17:06:37 10° NNW 17:10:44 61° W 17:14:50 10° S
Cosmos 1898 Rocket 4.3 17:08:06 10° SSE 17:12:33 30° E 17:16:31 12° NE
Gbstr 26 Del rocket 3.0 17:09:28 10° WSW 17:13:35 59° NNW 17:16:29 16° NE
Cosmos 1726 Rocket 3.7 17:09:22 10° S 17:13:55 59° E 17:18:25 10° NNE
Cosmos 372 Rocket 4.4 17:10:23 10° S 17:15:09 39° ESE 17:19:40 11° NE
AQUARIUS 4.2 17:12:42 10° SSE 17:16:58 51° ENE 17:21:15 10° N
USA 215 4.3 17:12:07 12° NE 17:17:17 31° N 17:22:52 10° WNW
SMAP 3.1 17:13:35 10° SSE 17:18:15 88° WSW 17:22:56 10° NNW
Cosmos 2082 4.4 17:13:54 10° N 17:19:00 32° NE 17:24:04 10° ESE
Cosmos 1805 4.1 17:19:02 10° NNE 17:21:43 21° ENE 17:24:22 10° SE
Landsat 7 3.7 17:17:44 10° SSE 17:22:22 80° ENE 17:27:03 10° N
Cosmos 2297 Rocket 3.9 17:17:37 10° NW 17:22:48 37° WSW 17:27:57 10° S
GEOS 3 Rocket 3.7 17:19:09 11° NE 17:24:25 90° SE 17:29:48 10° SW
YAOGAN 1 3.5 17:21:51 10° ESE 17:25:18 24° ENE 17:28:45 10° NNE
Cosmos 1937 Rocket 4.3 17:23:37 10° SSE 17:28:06 31° E 17:30:51 19° NE
SL-16 R/B 3.8 17:26:59 10° SE 17:29:25 14° ESE 17:29:25 14° ESE
Okean 1-7 Rocket 4.4 17:27:24 10° NNW 17:31:40 54° W 17:35:54 10° S
Cosmos 990 Rocket 4.4 17:27:04 10° SSW 17:32:09 64° WNW 17:37:17 10° NNE
CZ-2D R/B 4.1 17:29:34 10° SE 17:33:19 33° ENE 17:37:02 10° N
SL-16 R/B 3.7 17:30:31 10° N 17:36:16 41° WNW 17:41:59 10° SW
COSMOS 2455 3.8 17:31:47 10° SSE 17:36:38 26° ESE 17:38:36 22° ENE
Meteor 2-2 Rocket 4.5 17:31:45 10° SSE 17:37:04 45° E 17:42:23 10° NNE
Okean 1 3.7 17:34:21 10° SSE 17:37:36 33° E 17:38:20 30° ENE
SKYMED 2 3.9 17:35:14 15° NNE 17:38:34 45° E 17:42:43 10° S
SJ-6F 4.2 17:39:40 10° SSE 17:43:39 84° ENE 17:47:41 10° NNW
Cosmos 1980 Rocket 2.1 17:38:50 10° SSW 17:44:30 85° ESE 17:49:21 14° NNE
Cosmos 1844 Rocket 3.8 17:41:32 10° N 17:45:49 22° NE 17:45:49 22° NE
Cosmos 2219 3.2 17:40:39 10° NNW 17:46:20 60° ENE 17:52:01 10° SE
Aureole 1 Rocket 3.3 17:41:58 10° SSW 17:46:26 84° ESE 17:51:47 12° NNE
Meteor 1-26 Rocket 4.2 17:42:24 10° S 17:47:39 55° E 17:52:49 11° NNE
Cosmos 1953 Rocket 3.6 17:44:13 10° N 17:48:41 85° W 17:53:08 10° S
PSLV R/B 4.1 17:45:47 10° SE 17:50:00 32° NE 17:53:06 10° N
ARIANE 5 R/B 3.1 17:46:22 10° S 17:51:21 59° WSW 17:56:27 10° NNW
SL-19 R/B 4.5 17:47:12 10° SE 17:52:19 45° ENE 17:57:45 10° N
Cosmos 2263 Rocket 2.2 17:48:50 10° NNW 17:54:32 83° WSW 18:00:13 10° SSE
BREEZE-M DEB (TANK) 2.2 17:52:48 10° SW 17:56:58 62° SSE 17:57:13 58° ESE
BREEZE-M DEB (TANK) 4.0 17:56:04 10° WNW 17:59:49 69° NNE 18:06:53 22° E
Cosmos 1680 Rocket 4.0 17:55:03 10° N 17:59:53 36° ENE 18:00:24 36° ENE
COSMO-SKYMED 1 2.6 17:59:08 43° ENE 17:59:53 49° E 18:03:52 10° S
NOAA 6 4.3 17:56:51 10° SE 18:01:38 43° ENE 18:06:26 10° N
Cosmos 2369 3.7 17:56:29 10° SSW 18:02:09 68° ESE 18:05:20 27° NE
Cosmos 1076 Rocket 4.3 17:59:04 10° NNW 18:03:16 53° W 18:07:27 10° S
Meteor 2-10 4.1 17:58:09 10° N 18:03:36 88° WSW 18:09:12 10° S
USA 81 4.2 18:07:28 10° N 18:12:45 76° W 18:17:59 10° S
Cosmos 44 Rocket 4.5 18:08:18 10° NNW 18:11:53 28° NNE 18:11:53 28° NNE
Cosmos 2227 Rocket 3.9 18:09:26 10° NW 18:14:27 33° WSW 18:19:26 10° SSW
SPOT 1/Viking Rocket 3.7 18:10:13 10° S 18:15:24 74° WSW 18:20:38 10° NNW
Cosmos 2058 Rocket 3.8 18:18:21 10° SSW 18:22:44 54° WNW 18:26:26 14° N
OceanSat 1 rocket 4.4 18:20:21 10° SSE 18:25:03 75° ENE 18:29:46 10° N
Meteor 1-17 Rocket 4.5 18:21:17 10° N 18:26:51 79° E 18:32:21 10° SSE
Cosmos 2333 Rocket 3.5 18:26:52 10° SSE 18:29:34 24° SSE 18:29:34 24° SSE
Lacrosse 5 rocket 3.8 18:32:16 10° NNW 18:32:26 11° NNW 18:32:26 11° NNW
Meteor 2-11 Rocket 4.3 18:29:32 10° N 18:35:44 84° E 18:41:53 10° S
Meteor 1-14 Rocket 4.2 18:34:11 10° N 18:39:09 60° NE 18:39:09 60° NE
Resurs 1-3 4.2 18:38:09 10° S 18:42:21 54° W 18:46:35 10° NNW
Cosmos 2322 Rocket 4.1 18:37:57 10° SSE 18:39:03 15° SSE 18:39:03 15° SSE
USA 215 4.0 18:59:28 36° N 18:59:28 36° N 19:05:05 10° NW
S3M 4.0 18:53:37 10° S 18:59:17 71° SSE 18:59:17 71° SSE
YAOGAN 1 4.2 18:57:10 10° SSW 19:00:59 32° W 19:04:51 10° NNW
BREEZE-M DEB (TANK) 3.4 19:00:19 10° WSW 19:06:16 67° SW 19:06:16 67° SW
SL-16 R/B 2.9 19:07:24 10° SSW 19:11:20 47° SSW 19:11:20 47° SSW
Cosmos 1745 Rocket 4.2 19:11:39 10° NNW 19:17:46 66° W 19:23:47 10° S
COSMOS 2455 3.3 19:16:12 10° SW 19:21:46 57° WNW 19:21:46 57° WNW
Cosmos 1980 Rocket 4.4 19:25:18 10° W 19:29:13 19° NW 19:31:07 16° NNW
Cosmos 1844 Rocket 4.1 19:24:40 10° NNW 19:27:31 31° NW 19:27:31 31° NW
